Regional Weather Roundup
Issued by NWS

Home | Current Version | Previous Version | Graphics & Text | Print | Product List | Glossary On
Versions: 1 2 3 4 5 6 7 8 9 10 11 12 13 14 15 16 17 18 19 20 21 22 23 24 25 26 27 28 29 30 31 32 33 34 35 36 37 38 39 40 41 42 43 44 45 46 47 48 49 50
000
ASUS43 KOAX 261802
RWRNE

WEATHER ROUNDUP FOR NEBRASKA
NATIONAL WEATHER SERVICE OMAHA NE
100 PM CDT SUN APR 26 2015

NOTES: SATELLITE DATA IS BEING USED TO AUGMENT CLOUD COVER ABOVE
       12000 FEET.
       "FAIR" INDICATES FEW OR NO CLOUDS BELOW 12,000 FEET WITH NO
       SIGNIFICANT WEATHER AND/OR OBSTRUCTIONS TO VISIBILITY.

  * THESE STATIONS DO NOT REPORT WEATHER SUCH AS RAIN...SNOW OR FOG.

NEZ001>004-019>022-054>056-261900-
NEBRASKA PANHANDLE

CITY           SKY/WX    TMP DP  RH WIND       PRES   REMARKS
SCOTTSBLUFF    LGT RAIN  45  50 100 SE15      29.95S
6HR MIN TEMP:  45; 6HR MAX TEMP:  48; 6HR PCP:  0.42;

ALLIANCE       CLOUDY    44  42  93 SE13      29.97R
6HR MIN TEMP:  43; 6HR MAX TEMP:  46; 6HR PCP:  0.16;

CHADRON        LGT RAIN  47  44  90 SE6       29.98R FOG
6HR MIN TEMP:  47; 6HR MAX TEMP:  49; 6HR PCP:  0.17;

KIMBALL        RAIN      42  40  94 E9        29.92S
SIDNEY         LGT RAIN  43  42  97 SE9       29.96S FOG
6HR MIN TEMP:  42; 6HR MAX TEMP:  45; 6HR PCP:  0.03;

$$

NEZ057>060-069>072-079>082-261900-
SOUTHWEST NEBRASKA

CITY           SKY/WX    TMP DP  RH WIND       PRES   REMARKS
IMPERIAL       FOG       43  41  93 SE16      29.97R VSB 1
6HR MIN TEMP:  43; 6HR MAX TEMP:  44; 6HR PCP: TRACE;

LEXINGTON      CLOUDY    51  43  75 E14G20    29.99F
MCCOOK         CLOUDY    46  42  86 E16       29.97S
6HR MIN TEMP:  45; 6HR MAX TEMP:  46;

$$

NEZ005>010-023>029-035>040-094-261900-
NORTH CENTRAL NEBRASKA

CITY           SKY/WX    TMP DP  RH WIND       PRES   REMARKS
VALENTINE      PTSUNNY   52  38  58 SE16      30.03S
6HR MIN TEMP:  45; 6HR MAX TEMP:  52;

AINSWORTH      CLOUDY    56  40  56 E13G20    30.02F
BROKEN BOW     PTSUNNY   55  40  56 E15       30.00S
6HR MIN TEMP:  45; 6HR MAX TEMP:  55;

ORD            PTSUNNY   55  38  52 E13       30.01S
6HR MIN TEMP:  44; 6HR MAX TEMP:  56;

$$

NEZ041-046>049-061>064-073>077-083>087-261900-
SOUTH CENTRAL NEBRASKA

CITY           SKY/WX    TMP DP  RH WIND       PRES   REMARKS
GRAND ISLAND   CLOUDY    54  41  61 E16       30.02R
6HR MIN TEMP:  45; 6HR MAX TEMP:  54;

AURORA         PTSUNNY   54  44  68 E20       30.01S
HASTINGS       CLOUDY    54  43  66 E20       29.99S
6HR MIN TEMP:  45; 6HR MAX TEMP:  54;

HEBRON         CLOUDY    51  41  69 E16G22    30.00F
HOLDREGE       CLOUDY    49  42  75 E15       29.99S
KEARNEY *      CLOUDY    52  41  66 E14G22    30.00F
YORK           PTSUNNY   54  43  66 E17       30.02S
$$

NEZ011>018-030>034-042>045-261900-
NORTHEAST NEBRASKA

CITY           SKY/WX    TMP DP  RH WIND       PRES   REMARKS
NORFOLK        SUNNY     58  29  33 E17G23    30.04F
6HR MIN TEMP:  40; 6HR MAX TEMP:  58;

ALBION         SUNNY     56  37  48 E15G23    30.03F
BLAIR          MOSUNNY   56  40  56 E8G18     30.05S
COLUMBUS *     MOSUNNY   55  39  54 E17G25    30.05F
FREMONT        SUNNY     57  41  54 E12       30.05F
TEKAMAH        SUNNY     60  35  39 E14G21    30.05F
6HR MIN TEMP:  37; 6HR MAX TEMP:  60;

WAYNE          SUNNY     60  23  24 E12G25    30.05F
$$

NEZ050>053-065>068-078-088>093-261900-
SOUTHEAST NEBRASKA

CITY           SKY/WX    TMP DP  RH WIND       PRES   REMARKS
LINCOLN        MOSUNNY   57  41  55 E15G22    30.04F
6HR MIN TEMP:  45; 6HR MAX TEMP:  57;

OMAHA EPPLEY   MOSUNNY   58  40  51 NE13G21   30.05F
6HR MIN TEMP:  41; 6HR MAX TEMP:  58;

BEATRICE       CLOUDY    53  43  68 E13       30.01F
FALLS CITY     CLOUDY    54  42  64 NE12      30.01F
6HR MIN TEMP:  46; 6HR MAX TEMP:  57;

NEBRASKA CITY  PTSUNNY   57  36  46 E15G21    30.03F
PLATTSMOUTH    MOSUNNY   56  38  49 E12G18    30.04F
$$

NEZ044-045-051>053-067-261900-
OMAHA AREA

CITY           SKY/WX    TMP DP  RH WIND       PRES   REMARKS
OMAHA EPPLEY   MOSUNNY   58  40  51 NE13G21   30.05F
6HR MIN TEMP:  41; 6HR MAX TEMP:  58;

BLAIR          MOSUNNY   56  40  56 E8G18     30.05S
FREMONT        SUNNY     57  41  54 E12       30.05F
MILLARD        PTSUNNY   58  43  58 E7        30.04F
OFFUTT AFB     MOSUNNY   58  41  54 NE10G20   30.03F
PLATTSMOUTH    MOSUNNY   56  38  49 E12G18    30.04F
WAHOO          FAIR      56  40  56 E14G21    30.04F
$$


USA.gov is the U.S. government's official web portal to all federal, state and local government web resources and services.